Flag Weather past 2 weeks in Peterborough, Ontario, Canada

Now
39 °F

Rain. Fog.


Feels Like: 35 °F
Forecast: 35 / 40 °F
Wind: 6 mph from Southwest

Location: Peterborough Airport

Current Time: Nov 22, 2014 at 9:22:09 PM

Latest Report: Nov 22, 2014 at 9:00 PM


Visibility: 2 mi

Pressure: 29.92 "Hg

Humidity: 100%

Dew point: 39 °F

Location of PeterboroughLocation

Historic Weather in Peterborough — Graph

°F

Peterborough temperature yesterday

Maximum temperature yesterday: 27 °F (at 3:00 PM)
Minimum temperature yesterday: 10 °F (at 7:00 AM)
Average temperature yesterday: 19 °F

Past Weeks' High & Low Weather Summary

 TemperatureHumidityPressure
High63 °F (Nov 11, 2:00 PM)100% (Nov 8, 1:00 AM)30.42 "Hg (Nov 8, 1:00 AM)
Low10 °F (Nov 21, 7:00 AM)42% (Nov 11, 2:00 PM)29.51 "Hg (Nov 17, 2:57 PM)
Average31 °F81%29.95 "Hg
* Reported Nov 7 8:00 PM — Nov 22 8:00 PM, Peterborough, Weather by CustomWeather, © 2014

Note: Actual official high and low records may vary slightly from our data, if they occured in-between our weather recording intervals... More about our weather records

Advertising

Peterborough weather history for previous 24 hours

 ConditionsComfort  
Time TempWeatherWind HumidityBarometerVisibility
8:00 PM
Nov 22
39 °FLight rain. Fog.6 mph93%29.94 "Hg3 mi
7:00 PM39 °FFog.8 mph93%29.93 "Hg3 mi
6:00 PM37 °FFog.7 mph100%29.94 "Hg3 mi
5:53 PM37 °FFog.8 mph100%29.94 "Hg3 mi
5:00 PM37 °FFog.7 mph93%29.93 "Hg5 mi
4:02 PM37 °FFog.8 mph93%29.93 "Hg5 mi
3:00 PM37 °FOvercast.7 mph93%29.93 "Hg9 mi
2:00 PM36 °FOvercast.7 mph93%29.95 "Hg9 mi
1:53 PM36 °FOvercast.9 mph93%29.96 "Hg9 mi
1:00 PM37 °FLight rain. Overcast.12 mph75%29.96 "Hg9 mi
12:49 PM37 °FLight rain. Overcast.14 mph75%29.96 "Hg9 mi
12:00 PM36 °FOvercast.9 mph75%30.00 "Hg9 mi
11:00 AM34 °FOvercast.14 mph81%30.06 "Hg9 mi
10:00 AM34 °FOvercast.13 mph75%30.09 "Hg9 mi
9:00 AM34 °FOvercast.15 mph70%30.13 "Hg9 mi
8:00 AM30 °FPartly sunny.13 mph80%30.15 "Hg9 mi
7:00 AM30 °FPartly cloudy.8 mph80%30.17 "Hg9 mi
6:00 AM28 °FPartly cloudy.9 mph86%30.20 "Hg9 mi
5:00 AM28 °FOvercast.12 mph80%30.22 "Hg9 mi
4:00 AM27 °FOvercast.10 mph86%30.25 "Hg9 mi
3:00 AM25 °FOvercast.10 mph80%30.28 "Hg9 mi
2:00 AM21 °FOvercast.8 mph74%30.30 "Hg9 mi
1:00 AM19 °FOvercast.2 mph68%30.33 "Hg9 mi
12:00 AM21 °FOvercast.5 mph63%30.35 "Hg9 mi
11:00 PM
Nov 21
21 °FOvercast.6 mph63%30.36 "Hg9 mi
10:00 PM21 °FOvercast.8 mph63%30.39 "Hg9 mi
9:00 PM19 °FPassing clouds.7 mph68%30.40 "Hg9 mi
Weather by CustomWeather, © 2014

See weather overviewHow to use our weather pages